Regional Weather Roundup
Issued by NWS

Home | Current Version | Previous Version | Text Only | Print | Product List | Glossary Off
Versions: 1 2 3 4 5 6 7 8 9 10 11 12 13 14 15 16 17 18 19 20 21 22 23 24 25 26 27 28 29 30 31 32 33 34 35 36 37 38 39 40 41 42 43 44 45 46 47 48 49 50

438
ASUS45 KSLC 081310
RWRUT

UTAH REGIONAL WEATHER ROUNDUP
NATIONAL WEATHER SERVICE SALT LAKE CITY UT
600 AM MST MON FEB 08 2016

UTZ001>011-023>025-081400-

NORTHERN UTAH

CITY           SKY/WX    TMP DP  RH WIND       PRES   REMARKS
BRIGHAM CITY   PTCLDY    13  10  87 CALM      30.69S
HILL AFB       PTCLDY    24  13  64 E14       30.65F WCI  12
LOGAN          FOG       10   9  95 SW6       30.70S VSB<1/4 WCI   0
OGDEN          PTCLDY    22  17  81 S6        30.66F WCI  14
PROVO AIRPORT  PTCLDY    10   9  92 CALM      30.68R
SALT LAKE CITY PTCLDY    26  21  81 CALM      30.67R
VERNAL         CLOUDY     8   4  83 CALM      30.59S
WENDOVER       PTCLDY    23  19  86 CALM      30.67R
HEBER CITY     CLEAR      3   0  85 CALM      30.64R HAZE
WEST JORDAN    CLEAR     21  19  93 NW5       30.67R WCI  15

$$

UTZ012>022-026-027-081400-

SOUTHERN/CENTRAL UTAH

CITY           SKY/WX    TMP DP  RH WIND       PRES   REMARKS
BLANDING       CLEAR     28  14  56 CALM      30.56R
BRYCE CANYON   PTCLDY     7   3  84 NW7       30.58R WCI  -5
CEDAR CITY     PTCLDY    13   9  84 SE7       30.60R WCI   3
DELTA          CLOUDY     4   1  88 CALM      30.67R VSB<1/4
HANKSVILLE     MOCLDY    14  12  92 CALM      30.61S
MILFORD        MOCLDY    11  32 100 E3        30.63S
MOAB/CYNLANDS  PTCLDY    12  10  92 CALM      30.57S
PRICE          PTCLDY    18  12  77 NE6       30.52R WCI  10
ST GEORGE      SUNNY     36  21  55 SW3       30.53S
KANAB          CLEAR     34  21  60 N10       30.54R WCI  26

$$

REGIONAL REPORTS     COLORADO/ARIZONA

CITY           SKY/WX    TMP DP  RH WIND       PRES   REMARKS
CRAIG, CO      CLOUDY    -5 -10  79 CALM      30.56F
GRAND JUNCTION CLOUDY    13  11  92 CALM      30.57R
RIFLE          CLOUDY    10   6  84 CALM      30.60R
MONTROSE       CLOUDY    15   9  76 S9        30.59R WCI   3
CORTEZ         CLOUDY    14  10  84 NE3       30.46R
PAGE, AZ       CLEAR     29  22  75 SW5       30.54R WCI  24
GRAND CANYON   PTCLDY    36  15  42 NE8       30.49S WCI  30
KINGMAN        CLEAR     40  20  44 E7        30.39S
FLAGSTAFF      CLEAR     34  12  40 E12       30.46R WCI  25

$$

REGIONAL REPORTS    NEVADA/IDAHO/WYOMING

CITY           SKY/WX    TMP DP  RH WIND       PRES   REMARKS
LAS VEGAS, NV  CLEAR     51  23  33 N13       30.41S
ELY            PTCLDY     7   4  87 S16       30.64R WCI -11
ELKO           MOCLDY     8   4  83 E5        30.68S WCI   0
POCATELLO, ID  FOG       24  23  96 NE7       30.69S VSB 1   WCI  16
BURLEY         CLEAR     26  25  96 NE6       30.65S WCI  19
EVANSTON, WY   CLOUDY    17  11  77 S7        30.60S WCI   8
ROCK SPRINGS   CLOUDY    25  16  68 SW22      30.49S WCI  10

$$




USA.gov is the U.S. government's official web portal to all federal, state and local government web resources and services.